AO-07 1 07530U 74089B 17314.59281407 -.00000026 00000-0 11528-3 0 9994 2 07530 101.6529 280.4999 0012423 039.2128 011.1483 12.53629645966977 UO-11 1 14781U 84021B 17314.72495226 .00000189 00000-0 29557-4 0 9999 2 14781 97.6796 354.8990 0009987 81.6830 278.5516 14.82953447812062 LO-19 1 20442U 90005G 17314.43806756 .00000037 00000-0 29710-4 0 9994 2 20442 098.5875 249.5337 0012903 076.9257 283.3366 14.32877001452500 HUBBLE 1 20580U 90037B 17314.58986726 .00000777 00000-0 36874-4 0 9994 2 20580 028.4687 120.0270 0002584 311.8941 107.6498 15.08914951312330 MET-2/21 1 22782U 93055A 17314.59624328 .00000081 00000-0 59348-4 0 9990 2 22782 082.5484 267.3846 0023011 023.5605 096.6205 13.83804057221673 AO-27 1 22825U 93061C 17314.49887892 .00000028 00000-0 28638-4 0 9990 2 22825 098.8330 282.0208 0007339 264.5144 095.5200 14.30012754258049 IO-26 1 22826U 93061D 17314.49627998 .00000035 00000-0 31314-4 0 9993 2 22826 098.8271 282.0829 0007898 253.2703 106.7612 14.30342823258246 FO-29 1 24278U 96046B 17314.57448708 -.00000018 00000-0 20175-4 0 9996 2 24278 098.5380 178.1885 0349768 318.1315 039.3550 13.53080307048428 NOAA-15 1 25338U 98030A 17314.60026510 .00000047 00000-0 38641-4 0 9994 2 25338 098.7795 325.7876 0011251 137.8356 222.3691 14.25825001013613 GO-32 1 25397U 98043D 17314.45366477 .00000008 00000-0 22456-4 0 9999 2 25397 098.6247 253.7955 0000634 356.9612 003.1563 14.23633202004384 ISS 1 25544U 98067A 17314.96219907 .00004514 00000-0 75429-4 0 9994 2 25544 51.6419 26.6287 0004636 106.5939 245.2690 15.54113936 84571 NO-44 1 26931U 01043C 17314.79533175 .00000002 00000-0 32435-4 0 9998 2 26931 67.0519 72.9192 0005347 261.6235 98.4260 14.30482436841316 SO-50 1 27607U 02058C 17314.61950991 .00000135 00000-0 40177-4 0 9995 2 27607 064.5570 038.0709 0038437 028.3257 331.9924 14.75388353800589 CO-55 1 27844U 03031E 17314.56564250 .00000090 00000-0 60250-4 0 9997 2 27844 098.6897 321.4437 0008738 285.9695 074.0519 14.22073620745085 CO-57 1 27848U 03031J 17314.46451702 .00000071 00000-0 52130-4 0 9994 2 27848 098.6989 321.6629 0008702 297.2446 062.7844 14.21683458744952 RS-22 1 27939U 03042A 17314.87937882 .00000241 00000-0 51689-4 0 9997 2 27939 97.9604 95.0860 0014189 118.5718 33.5747 14.66626726754819 NOAA-18 1 28654U 05018A 17314.55821267 .00000015 00000-0 33260-4 0 9995 2 28654 99.1717 340.2756 0014617 24.9623 335.2252 14.12356286642926 CO-58 1 28895U 05043F 17314.56149532 .00000274 00000-0 61455-4 0 9993 2 28895 097.8813 110.2678 0017695 044.2485 316.0129 14.63468825641662 Falconsat-3 1 30776U 07006E 17314.85225246 .00005580 00000-0 17015-3 0 9991 2 30776 35.4349 215.5232 0004043 231.5043 128.5320 15.33369272590772 CO-65 1 32785U 08021C 17314.50862839 .00000490 00000-0 58983-4 0 9993 2 32785 97.5582 332.0391 0014224 48.3566 311.8867 14.88000286516653 AAUSAT2 1 32788U 08021F 17314.57948293 .00001354 00000-0 13165-3 0 9994 2 32788 097.5451 344.9521 0011976 008.7229 351.4198 14.94098516517439 DO-64 1 32789U 08021G 17314.61657621 .00003198 00000-0 22661-3 0 9991 2 32789 097.5433 009.6741 0011417 330.1323 029.9251 15.05457842518797 CO-66 1 32791U 08021J 17314.61470535 .00000878 00000-0 95537-4 0 9996 2 32791 97.5526 336.9432 0014146 32.0039 328.2036 14.90381143516955 RS-30 1 32953U 08025A 17314.60442386 -.00000001 00000-0 -75656-4 0 9992 2 32953 82.5001 148.6224 0018870 328.1190 31.8746 12.43079864429610 PRISM 1 33493U 09002B 17314.73184692 .00001221 00000-0 11455-3 0 9994 2 33493 98.1477 203.2006 0015017 325.4018 34.6233 14.95938907477688 NOAA-19 1 33591U 09005A 17314.57485757 .00000121 00000-0 91179-4 0 9994 2 33591 099.1130 283.6176 0013277 218.0845 141.9388 14.12227466451051 TISAT-1 1 36799U 10035E 17314.36118864 .00001026 00000-0 11085-3 0 9993 2 36799 98.0796 80.2216 0011994 201.3089 158.7630 14.90590333397557 JUGNU 1 37839U 11058B 17314.23638499 .00000336 00000-0 37558-4 0 9999 2 37839 19.9619 284.9084 0018892 353.8716 126.8152 14.12600382314373 SRMSAT 1 37841U 11058D 17314.44271354 .00000334 00000-0 38193-4 0 9992 2 37841 019.9731 328.3498 0011652 247.5278 261.3114 14.10590395313868 AO-71 1 37854U 11061E 17314.57556283 .00004858 00000-0 26144-3 0 9998 2 37854 101.6992 262.6462 0165861 001.5917 358.5789 15.04726498328492 HRBE 1 37855U 11061F 17314.55315373 .00004311 00000-0 22871-3 0 9997 2 37855 101.7108 260.3194 0178989 008.9624 351.4711 15.03681314328315 ALMASAT-1 1 38078U 12006B 17314.80236729 .00029850 37887-5 31320-3 0 9992 2 38078 69.4352 95.9276 0278886 73.6667 289.5015 15.29424533307142 HORYU-2 1 38340U 12025D 17314.57752448 .00000451 00000-0 74504-4 0 9990 2 38340 098.3772 323.6762 0011581 180.5669 179.5528 14.75441011284465 RS-40 1 38735U 12041C 17314.18792081 .00000028 00000-0 13139-3 0 9996 2 38735 082.4783 233.1421 0017922 070.2424 290.0587 12.42575094239808 BEESAT-3 1 39134U 13015E 17314.59774195 .00003566 00000-0 17970-3 0 9990 2 39134 064.8639 113.6539 0032762 242.2595 117.5208 15.18442364251320 BEESAT-2 1 39136U 13015G 17314.62632090 .00002913 00000-0 16092-3 0 9992 2 39136 064.8699 126.3602 0033427 261.2501 098.4838 15.15592165251077 ZACUBE-1 1 39417U 13066B 17314.66199249 .00000493 00000-0 68570-4 0 9998 2 39417 97.6135 349.6786 0060056 149.5625 210.9097 14.80814813214451 TRITON-1 1 39427U 13066M 17314.58194287 .00000393 00000-0 71106-4 0 9995 2 39427 097.6367 320.1222 0112963 239.4224 119.5799 14.67557852212326 GOMX-1 1 39430U 13066Q 17314.87622188 .00000482 00000-0 97177-4 0 9992 2 39430 97.6755 302.8082 0150584 300.1161 58.5186 14.58969318211313 LO-74 1 39440U 13066AA 17314.59016991 .00000439 00000-0 68247-4 0 9999 2 39440 097.6171 337.6713 0080611 184.3009 175.7518 14.75553444212487 AO-73 1 39444U 13066AE 17314.56830528 .00000630 00000-0 84346-4 0 9991 2 39444 097.6149 350.8328 0059303 146.1525 214.3497 14.81569233212697 SPROUT 1 39770U 14029E 17314.85366131 .00001362 00000-0 16001-3 0 9994 2 39770 97.8758 52.8381 0008714 197.2320 162.8571 14.86517087187927 DUCHIFAT-1 1 40021U 14033M 17314.29705329 .00000954 00000-0 10455-3 0 9997 2 40021 097.9145 227.6365 0012893 173.7289 186.4092 14.90087418184358 NANOSATCBR1 1 40024U 14033Q 17314.76948295 .00000921 00000-0 10286-3 0 9999 2 40024 97.9094 226.7577 0012211 173.4529 186.6849 14.89385211184360 EO-79 1 40025U 14033R 17314.55959007 .00000719 00000-0 83255-4 0 9992 2 40025 097.9067 225.3642 0012354 177.6490 182.4786 14.88560725183750 DTUSAT-2 1 40030U 14033W 17314.73660961 .00000651 00000-0 76610-4 0 9998 2 40030 97.9026 224.4985 0011972 171.4767 188.6655 14.88176370184242 EO-80 1 40032U 14033Y 17314.78519768 .00000684 00000-0 80308-4 0 9998 2 40032 97.9032 224.5517 0011927 171.8617 188.2795 14.88112351184241 ANTELSAT 1 40034U 14033AA 17314.59894568 .00000477 00000-0 78529-4 0 9995 2 40034 097.8375 193.8267 0058776 180.6144 179.5002 14.73800831181958 VELOX-1 1 40057U 14034E 17314.81366856 .00000236 00000-0 40922-4 0 9999 2 40057 98.1940 57.2941 0009730 312.0660 47.9697 14.77263371181401 DAURIA DX 1 1 40071U 14037C 17314.80527057 -.00000069 00000-0 -14630-5 0 9993 2 40071 98.3512 71.8182 0007272 306.8474 53.2068 14.81083910180670 UKUBE-1 1 40074U 14037F 17314.85327942 .00000770 00000-0 10041-3 0 9999 2 40074 98.3619 76.5031 0003429 307.6623 52.4254 14.83645091180923 HODOYOSHI-1 1 40299U 14070B 17314.76898664 .00002082 00000-0 92537-4 0 9998 2 40299 97.3950 35.2412 0011775 302.9631 170.8251 15.22579183167248 CHUBUSAT-1 1 40300U 14070C 17314.86543074 .00000820 00000-0 39726-4 0 9993 2 40300 97.3844 32.0211 0019176 311.9018 151.3285 15.21206668167084 QSAT-EOS 1 40301U 14070D 17314.80050103 .00003260 00000-0 13665-3 0 9998 2 40301 97.3798 32.4435 0025611 304.2522 170.7706 15.23945756167152 FIREBIRD FU3 1 40377U 15003B 17314.56269722 .00004584 00000-0 19360-3 0 9998 2 40377 099.1116 167.7729 0132925 236.8921 121.9491 15.16249737153171 FIREBIRD FU4 1 40378U 15003C 17314.81715851 .00005568 00000-0 23377-3 0 9992 2 40378 99.1118 168.1250 0133140 235.9473 122.9056 15.16267232153224 GRIFEX 1 40379U 15003D 17314.78208550 .00004043 00000-0 18179-3 0 9993 2 40379 99.1154 165.2360 0139387 245.5991 113.0637 15.13615589153052 NO-84 1 40654U 15025D 17314.06327454 .00018532 00000-0 32507-3 0 01361 2 40654 054.9969 303.3853 0166563 273.6954 084.5111 15.36716907022112 NO-83 1 40655U 15025E 17314.37408079 .00033133 00000-0 43687-3 0 01544 2 40655 054.9812 266.8226 0127655 295.8296 062.9559 15.49001531022289 DEORBITSAIL 1 40719U 15032E 17314.74217383 .00000893 00000-0 13618-3 0 9995 2 40719 97.9635 206.5369 0017458 34.9155 325.3196 14.76229841125949 NUDT-PHONESAT 1 40900U 15049B 17314.73425176 .00004922 00000-0 22898-3 0 9992 2 40900 97.4440 320.6597 0015527 75.5848 284.7109 15.20303326118716 XW-2A 1 40903U 15049E 17314.79633185 .00004667 00000-0 12032-3 0 9997 2 40903 97.4100 342.2809 0016381 97.2109 263.1000 15.39571620120198 XW-2C 1 40906U 15049H 17314.83475768 .00001710 00000-0 95228-4 0 9991 2 40906 97.4575 317.4412 0016761 68.9262 291.3760 15.14851357118439 XW-2D 1 40907U 15049J 17314.80726546 .00001823 00000-0 10096-3 0 9996 2 40907 97.4546 317.1440 0016108 67.3149 292.9785 15.14976948118436 LILACSAT-2 1 40908U 15049K 17314.89131762 .00001049 00000-0 62378-4 0 9997 2 40908 97.4652 316.8524 0017676 66.5410 293.7677 15.13308447118359 XW-2F 1 40910U 15049M 17314.85047569 .00002800 00000-0 14875-3 0 9991 2 40910 97.4564 318.1119 0016873 64.4292 295.8682 15.16004766118362 XW-2B 1 40911U 15049N 17314.81733530 .00001799 00000-0 99802-4 0 9998 2 40911 97.4586 317.6012 0016022 67.7128 292.5802 15.14930599118338 DCBB 1 40912U 15049P 17314.70378351 .00003551 00000-0 17657-3 0 9998 2 40912 97.4523 320.2207 0017050 56.3295 32.9154 15.18160504118518 TW-1C 1 40926U 15051B 17314.80864527 .00015318 00000-0 32047-3 0 9996 2 40926 97.2138 353.3384 0011024 6.9782 81.1759 15.45489245119540 TW-1A 1 40928U 15051D 17314.86970353 .00005319 00000-0 14706-3 0 9991 2 40928 97.2110 348.0318 0013307 37.8827 72.7728 15.37360557119221 IO-86 1 40931U 15052B 17314.34726806 .00001509 00000-0 12169-3 0 9999 2 40931 5.9975 270.5375 0012277 152.0518 208.1213 14.76556577114606 GomX-3 1 40949U 98067HA 16292.18357804 .08527750 12374-4 77882-3 0 9992 2 40949 51.6055 106.7696 0006699 286.1344 73.8944 16.38002265 59645 LQSat 1 40958U 15057A 17314.84204066 .00000080 00000-0 20273-4 0 9996 2 40958 97.9641 27.5011 0017167 320.1691 39.8229 14.72998911112709 AO-85 1 40967U 15058D 17314.50309282 .00001195 00000-0 15206-3 0 01467 2 40967 064.7773 134.9995 0182659 024.9598 336.0228 14.75569473021389 ATHENOXAT-1 1 41168U 15077C 17314.87156071 .00002768 00000-0 11734-3 0 9993 2 41168 14.9817 177.4500 0012482 251.8542 199.6969 15.12164887105277 ChubuSat-2 1 41338U 16012B 17314.30490530 .00000673 00000-0 46173-4 0 9990 2 41338 031.0034 264.1861 0013785 066.1354 294.0724 14.99862771094947 ChubuSat-3 1 41339U 16012C 17314.47965667 .00000776 00000-0 54068-4 0 9993 2 41339 31.0104 261.9926 0013658 75.4091 284.8024 15.00059686 94950 Horyu-4 1 41340U 16012D 17314.25351218 .00001049 00000-0 73944-4 0 9990 2 41340 031.0053 259.8882 0014055 082.6694 277.5539 15.00792264094971 OUFTI-1 1 41458U 16025C 17314.79567283 .00003816 00000-0 20269-3 0 9999 2 41458 98.1696 0.7139 0173556 158.9706 201.8722 15.03902664 84602 e-st@r-II 1 41459U 16025D 17314.76760404 .00002843 00000-0 15329-3 0 9997 2 41459 98.1658 0.6004 0173528 159.5982 201.2240 15.03672479 84598 AAUSAT4 1 41460U 16025E 17314.80112834 .00005198 00000-0 27411-3 0 9993 2 41460 98.1630 0.8477 0166331 156.9394 203.9365 15.04835714 84634 NODES 1 1 41477U 98067HX 17262.38431888 .17021661 12538-4 46079-3 0 9990 2 41477 51.6074 225.8859 0003017 249.6794 110.5489 16.45625800 77086 NODES 2 1 41478U 98067HY 17266.27255257 .13534231 12598-4 22876-3 0 9990 2 41478 51.6086 206.1528 0005980 262.1280 97.9071 16.47641774 77698 LO-87 1 41557U 16033B 17314.83678290 .00003605 00000-0 13578-3 0 9995 2 41557 97.4535 34.3253 0013399 203.4005 156.6626 15.27676506 80810 NuSat2 1 41558U 16033C 17314.82044081 .00003632 00000-0 13754-3 0 9996 2 41558 97.4562 34.3786 0012885 201.9717 158.0971 15.27501606 80800 Lapan A3 1 41603U 16040E 17314.78341543 .00000520 00000-0 27750-4 0 9998 2 41603 97.4432 14.8757 0011888 285.4118 213.6044 15.19459428 76913 Swayam 1 41607U 16040J 17314.83037687 .00004102 00000-0 18520-3 0 9993 2 41607 97.4435 15.5813 0012472 285.2217 74.7640 15.21482376 76895 Pratham 1 41783U 16059A 17314.60576273 .00000145 00000-0 37596-4 0 9990 2 41783 098.1497 014.3291 0034747 062.9003 297.5737 14.62877326060000 AlSat 1N 1 41789U 16059G 17314.81451479 .00000244 00000-0 55465-4 0 9994 2 41789 98.1489 15.3226 0029458 56.6584 303.7393 14.64098248 60067 ScatSat 1 41790U 16059H 17314.55555296 .00000041 00000-0 21707-4 0 9996 2 41790 98.2926 0.9338 0019236 44.9803 315.2946 14.50847765 59484 TY-1 1 41844U 16066D 17314.87096159 .00002433 00000-0 10742-3 0 9990 2 41844 97.4067 319.8608 0017821 84.3892 34.9106 15.22564921 55655 CAS-2T 1 41845U 16066E 17314.88558440 .00000747 00000-0 12300-3 0 9996 2 41845 98.7704 333.9876 0366759 172.6109 188.0691 14.37825695 52572 Pegasus-1 1 41846U 16066F 17314.59297315 .00000572 00000-0 97344-4 0 9994 2 41846 098.7741 333.3668 0369020 175.3071 185.1736 14.37179246052504 STARS-C 1 41895U 98067KR 17314.42623840 .00076719 00000-0 50131-3 0 9995 2 41895 051.6352 010.9631 0002754 049.1756 310.9482 15.75142690050913 Tancredo 1 1 41931U 98067KT 17290.98270503 .14164078 12479-4 76733-3 0 9998 2 41931 51.6104 115.9004 0006182 280.1451 79.8879 16.42240901 42996 TO-89 1 41932U 98067KU 17314.44075624 .00025053 00000-0 25450-3 0 9991 2 41932 51.6401 17.9106 0004669 77.8321 282.3197 15.65021225 46398 AOBA-V3LOX3 1 41935U 98067KX 17314.56775379 .00031897 00000-0 30885-3 0 9992 2 41935 051.6394 016.4964 0004047 076.0734 284.0711 15.66090171046520 OSNSAT 1 41939U 98067KZ 17314.56210736 .00144494 00000-0 69913-3 0 9999 2 41939 051.6354 005.8318 0006204 048.9508 311.2030 15.81551452045920 EO-88 1 42017U 17008BX 17314.52948341 .00003916 00000-0 16610-3 0 9998 2 42017 097.4783 015.6194 0008111 073.8330 286.3799 15.23679745040765 HAVELSAT 1 42700U 98067LH 17314.83302029 .00029075 00000-0 33981-3 0 9996 2 42700 51.6396 22.7557 0004307 142.0701 218.0597 15.61337171 27806 SOMP2 1 42701U 98067LJ 17314.79509003 .00029146 00000-0 34671-3 0 9999 2 42701 51.6393 23.2543 0004349 142.3572 217.7726 15.60874456 27788 Columbia 1 42702U 98067LK 17314.77645202 .00098616 00000-0 79716-3 0 9997 2 42702 51.6367 19.3561 0002532 75.4982 284.6296 15.70031540 27762 PHOENIX 1 42706U 98067LP 17314.65508202 .00025893 00000-0 30715-3 0 9999 2 42706 51.6394 23.8218 0001293 62.7359 297.3766 15.61022847 27689 X-CubeSat 1 42707U 98067LQ 17314.58619908 .00026075 00000-0 30625-3 0 9991 2 42707 051.6381 024.0996 0001318 060.7046 299.4080 15.61278315027664 qbee 1 42708U 98067LR 17314.65785591 .00026104 00000-0 30876-3 0 9993 2 42708 51.6387 23.8292 0001334 63.3044 296.8086 15.61093738 27630 ZA-AeroSat 1 42713U 98067LU 17314.65338198 .00024607 00000-0 30398-3 0 9991 2 42713 51.6392 24.5572 0002628 56.4033 303.7211 15.59989039 27339 LINK 1 42714U 98067LV 17314.63050960 .00036578 00000-0 40614-3 0 9990 2 42714 51.6376 23.6414 0002837 44.6508 315.4714 15.62549280 27450 UPSat 1 42716U 98067LX 17314.81288455 .00035586 00000-0 40107-3 0 9999 2 42716 51.6391 22.6211 0002491 138.1920 221.9264 15.62178405 27500 SpaceCube 1 42717U 98067LY 17314.80112990 .00030461 00000-0 36062-3 0 9991 2 42717 51.6391 23.2915 0002798 140.6518 219.4679 15.60980672 26731 Hoopoe 1 42718U 98067LZ 17314.64678828 .00030396 00000-0 35144-3 0 9998 2 42718 51.6390 23.7604 0002643 135.8369 224.2837 15.61598375 26714 Challenger 1 42721U 98067MA 17314.66314607 .00045954 00000-0 48897-3 0 9991 2 42721 51.6377 23.1068 0004856 114.2221 245.9281 15.63527769 26429 NJUST-1 1 42722U 98067MB 17314.74962312 .00024420 00000-0 30510-3 0 9991 2 42722 51.6396 24.4463 0006109 126.2458 233.9100 15.59680824 26415 UNSW-EC0 1 42723U 98067MC 17314.61632348 .00031348 00000-0 36367-3 0 9994 2 42723 51.6399 24.3098 0005406 121.1843 238.9681 15.61483095 26382 DUTHsat 1 42724U 98067MD 17314.81100389 .00044111 00000-0 47641-3 0 9991 2 42724 51.6386 22.6047 0004096 116.5109 243.6306 15.63168461 26343 LO-90 1 42725U 98067ME 17314.73618354 .00028614 00000-0 34838-3 0 9993 2 42725 51.6395 24.3592 0004870 125.5225 234.6223 15.60273588 26316 nSIGHT1 1 42726U 98067MF 17314.57500240 .00012342 00000-0 16885-3 0 9993 2 42726 51.6406 26.2884 0005857 131.7098 228.4396 15.57830784 26289 QBITO 1 42728U 98067MH 17314.76578704 .00027068 00000-0 32300-3 0 9997 2 42728 51.6408 23.8189 0002340 122.7629 237.3590 15.60840474 26138 Aalto-2 1 42729U 98067MJ 17314.63686531 .00027523 00000-0 32772-3 0 9991 2 42729 51.6397 24.4480 0002258 121.1310 238.9905 15.60887449 26124 SUSat 1 42730U 98067MK 17314.65036315 .00025122 00000-0 30338-3 0 9993 2 42730 51.6392 24.5335 0002481 119.5991 240.5250 15.60572859 26112 i-INSPIRE II 1 42731U 98067ML 17314.79533758 .00031440 00000-0 36109-3 0 9994 2 42731 51.6383 23.2373 0006639 70.4056 289.7654 15.61734214 26194 PolyITAN-2-SAU 1 42732U 98067MM 17314.62946198 .00027670 00000-0 32749-3 0 9999 2 42732 51.6387 24.3826 0006677 71.0716 289.1000 15.61022472 26168 SNUSAT-1 1 42733U 98067MN 17314.65052963 .00025900 00000-0 31267-3 0 9999 2 42733 51.6391 24.5262 0006755 74.2542 285.9196 15.60543623 26164 ExAlta-1 1 42734U 98067MP 17314.67220416 .00032013 00000-0 36891-3 0 9993 2 42734 51.6383 23.9173 0007348 96.8666 263.3164 15.61632180 26125 Aoxiang-1 1 42735U 98067MQ 17314.67924412 .00023439 00000-0 29180-3 0 9996 2 42735 51.6387 24.7218 0006709 122.9845 237.1794 15.59797540 27532 BeEagleSat 1 42736U 98067MR 17314.66656101 .00027283 00000-0 33346-3 0 9993 2 42736 51.6388 24.6366 0006444 120.4774 239.6856 15.60190625 26221 Atlantis 1 42737U 98067MS 17314.45159837 .00068127 00000-0 60486-3 0 9992 2 42737 51.6358 22.4265 0004428 86.5730 273.5773 15.67896485 26125 CAS-4B 1 42759U 17034B 17314.73215698 .00001386 00000-0 99458-4 0 9996 2 42759 43.0175 202.3682 0007847 189.8101 269.2517 15.09098919 22441 CAS-4A 1 42761U 17034D 17314.78205920 .00000898 00000-0 69136-4 0 9998 2 42761 43.0180 202.0110 0008510 190.8998 219.3357 15.09172191 22440 UCLSat 1 42765U 17036A 17314.60752978 .00003223 00000-0 14727-3 0 9995 2 42765 097.4327 012.6650 0013515 119.1918 241.0671 15.21212979022063 NIUSat 1 42766U 17036B 17314.59421296 .00002818 00000-0 13398-3 0 9992 2 42766 097.4329 012.3839 0017859 107.1417 253.1775 15.19878393021320 LituanicaSAT 2 1 42768U 17036D 17314.43932082 .00004682 00000-0 21737-3 0 9994 2 42768 097.4331 012.2832 0017759 110.9142 249.3997 15.20369920021318 InflateSail 1 42770U 17036F 17245.93730135 .99999999 00000-0 73960-1 0 9995 2 42770 097.4262 306.2162 0014869 278.7167 080.9844 16.07641391010932 Aalto 1 1 42775U 17036L 17314.61601984 .00002156 00000-0 10208-3 0 9991 2 42775 097.4327 012.5039 0015988 107.6145 252.6838 15.20312162021284 URSA MAIOR 1 42776U 17036M 17314.61213852 .00002359 00000-0 11121-3 0 9995 2 42776 097.4330 012.5141 0015844 107.8961 252.4004 15.20368683021284 Max Valier Sat 1 42778U 17036P 17314.77294548 .00003016 00000-0 13963-3 0 9992 2 42778 97.4346 12.7860 0014434 112.5646 247.7119 15.20799848 21308 Pegasus 1 42784U 17036V 17314.81760097 .00003210 00000-0 14728-3 0 9997 2 42784 97.4329 12.8475 0014047 118.6025 241.6625 15.21064051 21315 NUDATSat 1 42787U 17036Y 17314.60329660 .00004142 00000-0 18741-3 0 9998 2 42787 097.4331 012.6753 0013683 119.5760 240.6841 15.21380547021128 SUCHAI 1 1 42788U 17036Z 17314.41190755 .00003120 00000-0 14256-3 0 9991 2 42788 097.4328 012.4707 0013687 119.9548 240.3049 15.21231419021326 SKCUBE 1 42789U 17036AA 17314.60646688 .00003213 00000-0 14667-3 0 9993 2 42789 097.4327 012.6674 0013524 119.2590 240.9999 15.21241699021276 VZLUSAT 1 1 42790U 17036AB 17314.39951691 .00004070 00000-0 18407-3 0 9992 2 42790 097.4327 012.4820 0013206 120.3630 239.8913 15.21416640021244 VENTA 1 1 42791U 17036AC 17314.59739899 .00003158 00000-0 14394-3 0 9996 2 42791 097.4326 012.6784 0013127 119.7907 240.4636 15.21318457021265 Robusta 1B 1 42792U 17036AD 17314.46320736 .00003297 00000-0 14987-3 0 9991 2 42792 97.4326 12.5482 0013066 120.6270 239.6256 15.21373880 21265 D-SAT 1 42794U 17036AF 17314.56756772 .00000796 00000-0 75575-4 0 9999 2 42794 097.6249 012.0957 0125981 289.6005 069.1650 14.90697578021157 BIRD-J 1 42820U 98067MU 17314.43041629 .00023100 00000-0 29178-3 0 9997 2 42820 51.6388 26.8095 0003432 51.4317 308.6982 15.59439813 19635 BIRD-G 1 42821U 98067MV 17314.50143103 .00022560 00000-0 28688-3 0 9990 2 42821 051.6387 026.5344 0003402 054.2191 305.9118 15.59277549019645 BIRD-M 1 42822U 98067MW 17314.62959717 .00025697 00000-0 32511-3 0 9994 2 42822 51.6388 25.8910 0003382 56.0490 304.0824 15.59330455 19647 BIRD-B 1 42823U 98067MX 17314.50338645 .00022968 00000-0 29122-3 0 9995 2 42823 51.6392 26.5519 0006123 81.3330 278.8356 15.59329952 19622 BIRD-N 1 42824U 98067MY 17314.57290114 .00024608 00000-0 31249-3 0 9997 2 42824 051.6400 026.2688 0005998 081.9784 278.1889 15.59246796019656 TechnoSat 1 42829U 17042E 17314.61706500 .00000578 00000-0 64334-4 0 9994 2 42829 097.6074 220.0035 0013593 200.9215 159.1449 14.90714525017764 Mayak 1 42830U 17042F 17314.54147179 .00001597 00000-0 16699-3 0 9991 2 42830 097.6080 219.9592 0013625 199.2054 160.8653 14.90934838017751 OBJECT MZ 1 42910U 98067MZ 17314.84076897 .00021378 00000-0 28528-3 0 9990 2 42910 51.6384 25.7909 0006838 108.0656 252.1082 15.58012137 13274 OBJECT NA 1 42911U 98067NA 17314.83791728 .00021856 00000-0 28949-3 0 9995 2 42911 51.6398 25.7867 0006393 101.8168 258.3541 15.58199020 13251 OBJECT NB 1 42912U 98067NB 17314.59256631 .00020987 00000-0 28117-3 0 9999 2 42912 51.6380 27.1201 0005680 113.6097 246.5493 15.57926371 13230 OBJECT NC 1 42913U 98067NC 17314.61387813 .00032581 00000-0 40565-3 0 9994 2 42913 051.6384 026.5265 0004033 117.0663 243.0742 15.59618496013244 OBJECT ND 1 42914U 98067ND 17314.59762400 .00019191 00000-0 25936-3 0 9998 2 42914 051.6397 027.1778 0005672 107.2597 252.9016 15.57757338013208 QIKCOM-1 1 42983U 98067NF 17314.72878475 .00007154 00000-0 11325-3 0 9992 2 42983 51.6437 27.7537 0005250 105.3236 37.9735 15.54605837 2210 /EX